owner,sensor,date,latitude,longitude,vertical_datum,sea_water_speed,direction_of_sea_water_velocity,upward_sea_water_velocity,qcFlag
Kerr-McGee,ioos:station:wmo:42373:1,2020-08-01T00:11:00Z,27.3539,-94.6254,79.0,27.5,143.7,-9999.0,'11111222,11111222,99999999'
Kerr-McGee,ioos:station:wmo:42373:1,2020-08-01T00:31:00Z,27.3539,-94.6254,79.0,27.0,145.3,-9999.0,'11111222,11111222,99999999'
Kerr-McGee,ioos:station:wmo:42373:1,2020-08-01T00:51:00Z,27.3539,-94.6254,79.0,26.0,145.3,-9999.0,'11111222,11111222,99999999'
Kerr-McGee,ioos:station:wmo:42373:1,2020-08-01T01:11:00Z,27.3539,-94.6254,79.0,25.5,143.4,-9999.0,'11111222,11111222,99999999'
Kerr-McGee,ioos:station:wmo:42373:1,2020-08-01T01:31:00Z,27.3539,-94.6254,79.0,26.5,140.4,-9999.0,'11111222,11111222,99999999'
Kerr-McGee,ioos:station:wmo:42373:1,2020-08-01T01:51:00Z,27.3539,-94.6254,79.0,25.0,139.9,-9999.0,'11111222,11111222,99999999'
Kerr-McGee,ioos:station:wmo:42373:1,2020-08-01T02:11:00Z,27.3539,-94.6254,79.0,23.8,137.7,-9999.0,'11111222,11111222,99999999'
Kerr-McGee,ioos:station:wmo:42373:1,2020-08-01T02:31:00Z,27.3539,-94.6254,79.0,23.1,132.5,-9999.0,'11111222,11111222,99999999'
Kerr-McGee,ioos:station:wmo:42373:1,2020-08-01T02:51:00Z,27.3539,-94.6254,79.0,22.5,135.4,-9999.0,'11111222,11111222,99999999'
Kerr-McGee,ioos:station:wmo:42373:1,2020-08-01T03:11:00Z,27.3539,-94.6254,79.0,22.7,134.5,-9999.0,'11111222,11111222,99999999'
Kerr-McGee,ioos:station:wmo:42373:1,2020-08-01T03:31:00Z,27.3539,-94.6254,79.0,22.2,133.9,-9999.0,'11111222,11111222,99999999'
Kerr-McGee,ioos:station:wmo:42373:1,2020-08-01T03:51:00Z,27.3539,-94.6254,79.0,22.8,131.4,-9999.0,'11111222,11111222,99999999'
Kerr-McGee,ioos:station:wmo:42373:1,2020-08-01T04:11:00Z,27.3539,-94.6254,79.0,24.3,132.5,-9999.0,'11111222,11111222,99999999'
Kerr-McGee,ioos:station:wmo:42373:1,2020-08-01T04:31:00Z,27.3539,-94.6254,79.0,24.9,130.6,-9999.0,'11111222,11111222,99999999'
Kerr-McGee,ioos:station:wmo:42373:1,2020-08-01T04:51:00Z,27.3539,-94.6254,79.0,24.2,133.3,-9999.0,'11111222,11111222,99999999'
Kerr-McGee,ioos:station:wmo:42373:1,2020-08-01T05:11:00Z,27.3539,-94.6254,79.0,23.1,134.6,-9999.0,'11111222,11111222,99999999'
Kerr-McGee,ioos:station:wmo:42373:1,2020-08-01T05:31:00Z,27.3539,-94.6254,79.0,23.0,136.2,-9999.0,'11111222,11111222,99999999'
Kerr-McGee,ioos:station:wmo:42373:1,2020-08-01T05:51:00Z,27.3539,-94.6254,79.0,24.0,136.0,-9999.0,'11111222,11111222,99999999'
Kerr-McGee,ioos:station:wmo:42373:1,2020-08-01T06:11:00Z,27.3539,-94.6254,79.0,24.3,131.5,-9999.0,'11111222,11111222,99999999'
Kerr-McGee,ioos:station:wmo:42373:1,2020-08-01T06:31:00Z,27.3539,-94.6254,79.0,29.3,140.4,-9999.0,'11111222,11111222,99999999'
Kerr-McGee,ioos:station:wmo:42373:1,2020-08-01T06:51:00Z,27.3539,-94.6254,79.0,30.8,142.0,-9999.0,'11111222,11111222,99999999'
Kerr-McGee,ioos:station:wmo:42373:1,2020-08-01T07:11:00Z,27.3539,-94.6254,79.0,31.8,140.5,-9999.0,'11111222,11111222,99999999'
Kerr-McGee,ioos:station:wmo:42373:1,2020-08-01T07:31:00Z,27.3539,-94.6254,79.0,31.4,138.1,-9999.0,'11111222,11111222,99999999'
Kerr-McGee,ioos:station:wmo:42373:1,2020-08-01T07:51:00Z,27.3539,-94.6254,79.0,29.1,141.8,-9999.0,'11111222,11111222,99999999'
Kerr-McGee,ioos:station:wmo:42373:1,2020-08-01T08:11:00Z,27.3539,-94.6254,79.0,28.2,138.7,-9999.0,'11111222,11111222,99999999'
Kerr-McGee,ioos:station:wmo:42373:1,2020-08-01T08:31:00Z,27.3539,-94.6254,79.0,27.7,141.1,-9999.0,'11111222,11111222,99999999'
Kerr-McGee,ioos:station:wmo:42373:1,2020-08-01T08:51:00Z,27.3539,-94.6254,79.0,27.3,141.8,-9999.0,'11111222,11111222,99999999'
Kerr-McGee,ioos:station:wmo:42373:1,2020-08-01T09:11:00Z,27.3539,-94.6254,79.0,28.4,143.3,-9999.0,'11111222,11111222,99999999'
Kerr-McGee,ioos:station:wmo:42373:1,2020-08-01T09:31:00Z,27.3539,-94.6254,79.0,30.9,151.4,-9999.0,'11111222,11111222,99999999'
Kerr-McGee,ioos:station:wmo:42373:1,2020-08-01T09:51:00Z,27.3539,-94.6254,79.0,28.9,139.8,-9999.0,'11111222,11111222,99999999'
Kerr-McGee,ioos:station:wmo:42373:1,2020-08-01T10:11:00Z,27.3539,-94.6254,79.0,24.2,146.3,-9999.0,'11111222,11111222,99999999'
Kerr-McGee,ioos:station:wmo:42373:1,2020-08-01T10:31:00Z,27.3539,-94.6254,79.0,21.9,148.6,-9999.0,'11111222,11111222,99999999'
Kerr-McGee,ioos:station:wmo:42373:1,2020-08-01T10:51:00Z,27.3539,-94.6254,79.0,21.1,162.6,-9999.0,'11111222,11111222,99999999'
Kerr-McGee,ioos:station:wmo:42373:1,2020-08-01T11:11:00Z,27.3539,-94.6254,79.0,22.7,151.1,-9999.0,'11111222,11111222,99999999'
Kerr-McGee,ioos:station:wmo:42373:1,2020-08-01T11:31:00Z,27.3539,-94.6254,79.0,26.1,150.6,-9999.0,'11111222,11111222,99999999'
Kerr-McGee,ioos:station:wmo:42373:1,2020-08-01T11:51:00Z,27.3539,-94.6254,79.0,16.3,151.9,-9999.0,'11111222,11111222,99999999'
Kerr-McGee,ioos:station:wmo:42373:1,2020-08-01T12:11:00Z,27.3539,-94.6254,79.0,23.9,155.3,-9999.0,'11111222,11111222,99999999'
Kerr-McGee,ioos:station:wmo:42373:1,2020-08-01T12:31:00Z,27.3539,-94.6254,79.0,23.4,147.2,-9999.0,'11111222,11111222,99999999'
Kerr-McGee,ioos:station:wmo:42373:1,2020-08-01T12:51:00Z,27.3539,-94.6254,79.0,22.4,143.9,-9999.0,'11111222,11111222,99999999'
Kerr-McGee,ioos:station:wmo:42373:1,2020-08-01T13:11:00Z,27.3539,-94.6254,79.0,19.9,143.0,-9999.0,'11111222,11111222,99999999'
Kerr-McGee,ioos:station:wmo:42373:1,2020-08-01T13:31:00Z,27.3539,-94.6254,79.0,19.6,142.7,-9999.0,'11111222,11111222,99999999'
Kerr-McGee,ioos:station:wmo:42373:1,2020-08-01T13:51:00Z,27.3539,-94.6254,79.0,20.2,136.2,-9999.0,'11111222,11111222,99999999'
Kerr-McGee,ioos:station:wmo:42373:1,2020-08-01T14:11:00Z,27.3539,-94.6254,79.0,19.8,128.8,-9999.0,'11111222,11111222,99999999'
Kerr-McGee,ioos:station:wmo:42373:1,2020-08-01T14:31:00Z,27.3539,-94.6254,79.0,17.9,127.1,-9999.0,'11111222,11111222,99999999'
Kerr-McGee,ioos:station:wmo:42373:1,2020-08-01T14:51:00Z,27.3539,-94.6254,79.0,17.9,131.4,-9999.0,'11111222,11111222,99999999'
Kerr-McGee,ioos:station:wmo:42373:1,2020-08-01T15:11:00Z,27.3539,-94.6254,79.0,20.1,128.5,-9999.0,'11111222,11111222,99999999'
Kerr-McGee,ioos:station:wmo:42373:1,2020-08-01T15:31:00Z,27.3539,-94.6254,79.0,17.9,122.7,-9999.0,'11111222,11111222,99999999'
Kerr-McGee,ioos:station:wmo:42373:1,2020-08-01T15:51:00Z,27.3539,-94.6254,79.0,20.2,119.7,-9999.0,'11111222,11111222,99999999'
Kerr-McGee,ioos:station:wmo:42373:1,2020-08-01T16:11:00Z,27.3539,-94.6254,79.0,16.7,126.5,-9999.0,'11111222,11111222,99999999'
Kerr-McGee,ioos:station:wmo:42373:1,2020-08-01T16:31:00Z,27.3539,-94.6254,79.0,21.6,115.9,-9999.0,'11111222,11111222,99999999'
Kerr-McGee,ioos:station:wmo:42373:1,2020-08-01T16:51:00Z,27.3539,-94.6254,79.0,19.3,121.5,-9999.0,'11111222,11111222,99999999'
Kerr-McGee,ioos:station:wmo:42373:1,2020-08-01T17:11:00Z,27.3539,-94.6254,79.0,19.9,110.9,-9999.0,'11111222,11111222,99999999'
Kerr-McGee,ioos:station:wmo:42373:1,2020-08-01T17:31:00Z,27.3539,-94.6254,79.0,23.4,115.0,-9999.0,'11111222,11111222,99999999'
Kerr-McGee,ioos:station:wmo:42373:1,2020-08-01T17:51:00Z,27.3539,-94.6254,79.0,22.4,113.4,-9999.0,'11111222,11111222,99999999'
Kerr-McGee,ioos:station:wmo:42373:1,2020-08-01T18:11:00Z,27.3539,-94.6254,79.0,24.4,118.3,-9999.0,'11111222,11111222,99999999'
Kerr-McGee,ioos:station:wmo:42373:1,2020-08-01T18:31:00Z,27.3539,-94.6254,79.0,26.1,119.6,-9999.0,'11111222,11111222,99999999'
Kerr-McGee,ioos:station:wmo:42373:1,2020-08-01T18:51:00Z,27.3539,-94.6254,79.0,20.9,122.7,-9999.0,'11111222,11111222,99999999'
Kerr-McGee,ioos:station:wmo:42373:1,2020-08-01T19:11:00Z,27.3539,-94.6254,79.0,20.0,127.3,-9999.0,'11111222,11111222,99999999'
Kerr-McGee,ioos:station:wmo:42373:1,2020-08-01T19:31:00Z,27.3539,-94.6254,79.0,23.7,124.7,-9999.0,'11111222,11111222,99999999'
Kerr-McGee,ioos:station:wmo:42373:1,2020-08-01T19:51:00Z,27.3539,-94.6254,79.0,20.2,127.2,-9999.0,'11111222,11111222,99999999'
Kerr-McGee,ioos:station:wmo:42373:1,2020-08-01T20:11:00Z,27.3539,-94.6254,79.0,22.5,117.2,-9999.0,'11111222,11111222,99999999'
Kerr-McGee,ioos:station:wmo:42373:1,2020-08-01T20:31:00Z,27.3539,-94.6254,79.0,22.4,116.2,-9999.0,'11111222,11111222,99999999'
Kerr-McGee,ioos:station:wmo:42373:1,2020-08-01T20:51:00Z,27.3539,-94.6254,79.0,20.2,109.7,-9999.0,'11111222,11111222,99999999'
Kerr-McGee,ioos:station:wmo:42373:1,2020-08-01T21:11:00Z,27.3539,-94.6254,79.0,25.0,107.5,-9999.0,'11111222,11111222,99999999'
Kerr-McGee,ioos:station:wmo:42373:1,2020-08-01T21:31:00Z,27.3539,-94.6254,79.0,26.0,107.0,-9999.0,'11111222,11111222,99999999'
Kerr-McGee,ioos:station:wmo:42373:1,2020-08-01T21:51:00Z,27.3539,-94.6254,79.0,26.8,103.6,-9999.0,'11111222,11111222,99999999'
Kerr-McGee,ioos:station:wmo:42373:1,2020-08-01T22:11:00Z,27.3539,-94.6254,79.0,23.9,103.0,-9999.0,'11111222,11111222,99999999'
Kerr-McGee,ioos:station:wmo:42373:1,2020-08-01T22:31:00Z,27.3539,-94.6254,79.0,19.3,106.6,-9999.0,'11111222,11111222,99999999'
Kerr-McGee,ioos:station:wmo:42373:1,2020-08-01T22:51:00Z,27.3539,-94.6254,79.0,25.9,104.5,-9999.0,'11111222,11111222,99999999'
Kerr-McGee,ioos:station:wmo:42373:1,2020-08-01T23:11:00Z,27.3539,-94.6254,79.0,26.7,98.4,-9999.0,'11111222,11111222,99999999'
Kerr-McGee,ioos:station:wmo:42373:1,2020-08-01T23:31:00Z,27.3539,-94.6254,79.0,28.8,100.0,-9999.0,'11111222,11111222,99999999'
Kerr-McGee,ioos:station:wmo:42373:1,2020-08-01T23:51:00Z,27.3539,-94.6254,79.0,25.1,96.9,-9999.0,'11111222,11111222,99999999'
Kerr-McGee,ioos:station:wmo:42373:1,2020-08-02T00:11:00Z,27.3539,-94.6254,79.0,20.9,98.0,-9999.0,'11111222,11111222,99999999'
Kerr-McGee,ioos:station:wmo:42373:1,2020-08-02T00:31:00Z,27.3539,-94.6254,79.0,25.2,100.7,-9999.0,'11111222,11111222,99999999'
Kerr-McGee,ioos:station:wmo:42373:1,2020-08-02T00:51:00Z,27.3539,-94.6254,79.0,26.8,98.6,-9999.0,'11111222,11111222,99999999'
Kerr-McGee,ioos:station:wmo:42373:1,2020-08-02T01:11:00Z,27.3539,-94.6254,79.0,35.6,100.0,-9999.0,'11111222,11111222,99999999'
Kerr-McGee,ioos:station:wmo:42373:1,2020-08-02T01:31:00Z,27.3539,-94.6254,79.0,33.5,103.0,-9999.0,'11111222,11111222,99999999'
Kerr-McGee,ioos:station:wmo:42373:1,2020-08-02T01:51:00Z,27.3539,-94.6254,79.0,32.1,103.5,-9999.0,'11111222,11111222,99999999'
Kerr-McGee,ioos:station:wmo:42373:1,2020-08-02T02:11:00Z,27.3539,-94.6254,79.0,33.5,108.8,-9999.0,'11111222,11111222,99999999'
Kerr-McGee,ioos:station:wmo:42373:1,2020-08-02T02:31:00Z,27.3539,-94.6254,79.0,34.7,112.4,-9999.0,'11111222,11111222,99999999'
Kerr-McGee,ioos:station:wmo:42373:1,2020-08-02T02:51:00Z,27.3539,-94.6254,79.0,33.9,113.8,-9999.0,'11111222,11111222,99999999'
Kerr-McGee,ioos:station:wmo:42373:1,2020-08-02T03:11:00Z,27.3539,-94.6254,79.0,35.0,115.8,-9999.0,'11111222,11111222,99999999'
Kerr-McGee,ioos:station:wmo:42373:1,2020-08-02T03:31:00Z,27.3539,-94.6254,79.0,35.2,115.9,-9999.0,'11111222,11111222,99999999'
Kerr-McGee,ioos:station:wmo:42373:1,2020-08-02T03:51:00Z,27.3539,-94.6254,79.0,34.4,120.2,-9999.0,'11111222,11111222,99999999'
Kerr-McGee,ioos:station:wmo:42373:1,2020-08-02T04:11:00Z,27.3539,-94.6254,79.0,34.4,118.7,-9999.0,'11111222,11111222,99999999'
Kerr-McGee,ioos:station:wmo:42373:1,2020-08-02T04:31:00Z,27.3539,-94.6254,79.0,33.8,118.5,-9999.0,'11111222,11111222,99999999'
Kerr-McGee,ioos:station:wmo:42373:1,2020-08-02T04:51:00Z,27.3539,-94.6254,79.0,30.6,121.9,-9999.0,'11111222,11111222,99999999'
Kerr-McGee,ioos:station:wmo:42373:1,2020-08-02T05:11:00Z,27.3539,-94.6254,79.0,31.4,122.4,-9999.0,'11111222,11111222,99999999'
Kerr-McGee,ioos:station:wmo:42373:1,2020-08-02T05:31:00Z,27.3539,-94.6254,79.0,29.9,120.5,-9999.0,'11111222,11111222,99999999'
Kerr-McGee,ioos:station:wmo:42373:1,2020-08-02T05:51:00Z,27.3539,-94.6254,79.0,28.7,121.8,-9999.0,'11111222,11111222,99999999'
Kerr-McGee,ioos:station:wmo:42373:1,2020-08-02T06:11:00Z,27.3539,-94.6254,79.0,27.3,127.4,-9999.0,'11111222,11111222,99999999'
Kerr-McGee,ioos:station:wmo:42373:1,2020-08-02T06:31:00Z,27.3539,-94.6254,79.0,30.3,124.4,-9999.0,'11111222,11111222,99999999'
Kerr-McGee,ioos:station:wmo:42373:1,2020-08-02T06:51:00Z,27.3539,-94.6254,79.0,30.8,122.4,-9999.0,'11111222,11111222,99999999'
Kerr-McGee,ioos:station:wmo:42373:1,2020-08-02T07:11:00Z,27.3539,-94.6254,79.0,29.0,123.5,-9999.0,'11111222,11111222,99999999'
Kerr-McGee,ioos:station:wmo:42373:1,2020-08-02T07:31:00Z,27.3539,-94.6254,79.0,30.3,124.5,-9999.0,'11111222,11111222,99999999'
Kerr-McGee,ioos:station:wmo:42373:1,2020-08-02T07:51:00Z,27.3539,-94.6254,79.0,29.3,124.7,-9999.0,'11111222,11111222,99999999'
Kerr-McGee,ioos:station:wmo:42373:1,2020-08-02T08:11:00Z,27.3539,-94.6254,79.0,29.9,122.4,-9999.0,'11111222,11111222,99999999'
Kerr-McGee,ioos:station:wmo:42373:1,2020-08-02T08:31:00Z,27.3539,-94.6254,79.0,28.6,118.8,-9999.0,'11111222,11111222,99999999'
Kerr-McGee,ioos:station:wmo:42373:1,2020-08-02T08:51:00Z,27.3539,-94.6254,79.0,25.6,119.0,-9999.0,'11111222,11111222,99999999'
Kerr-McGee,ioos:station:wmo:42373:1,2020-08-02T09:11:00Z,27.3539,-94.6254,79.0,27.9,119.4,-9999.0,'11111222,11111222,99999999'
Kerr-McGee,ioos:station:wmo:42373:1,2020-08-02T09:31:00Z,27.3539,-94.6254,79.0,30.3,116.5,-9999.0,'11111222,11111222,99999999'
Kerr-McGee,ioos:station:wmo:42373:1,2020-08-02T09:51:00Z,27.3539,-94.6254,79.0,27.1,119.4,-9999.0,'11111222,11111222,99999999'
Kerr-McGee,ioos:station:wmo:42373:1,2020-08-02T10:11:00Z,27.3539,-94.6254,79.0,25.2,118.2,-9999.0,'11111222,11111222,99999999'
Kerr-McGee,ioos:station:wmo:42373:1,2020-08-02T10:31:00Z,27.3539,-94.6254,79.0,20.4,131.0,-9999.0,'11111222,11111222,99999999'
Kerr-McGee,ioos:station:wmo:42373:1,2020-08-02T10:51:00Z,27.3539,-94.6254,79.0,21.8,131.7,-9999.0,'11111222,11111222,99999999'
Kerr-McGee,ioos:station:wmo:42373:1,2020-08-02T11:11:00Z,27.3539,-94.6254,79.0,20.1,131.8,-9999.0,'11111222,11111222,99999999'
Kerr-McGee,ioos:station:wmo:42373:1,2020-08-02T11:31:00Z,27.3539,-94.6254,79.0,23.1,128.7,-9999.0,'11111222,11111222,99999999'
Kerr-McGee,ioos:station:wmo:42373:1,2020-08-02T11:51:00Z,27.3539,-94.6254,79.0,13.2,136.8,-9999.0,'11111222,11111222,99999999'
Kerr-McGee,ioos:station:wmo:42373:1,2020-08-02T12:11:00Z,27.3539,-94.6254,79.0,14.7,136.7,-9999.0,'11111222,11111222,99999999'
Kerr-McGee,ioos:station:wmo:42373:1,2020-08-02T12:31:00Z,27.3539,-94.6254,79.0,19.6,118.3,-9999.0,'11111222,11111222,99999999'
Kerr-McGee,ioos:station:wmo:42373:1,2020-08-02T12:51:00Z,27.3539,-94.6254,79.0,18.6,122.2,-9999.0,'11111222,11111222,99999999'
Kerr-McGee,ioos:station:wmo:42373:1,2020-08-02T13:11:00Z,27.3539,-94.6254,79.0,14.5,118.9,-9999.0,'11111222,11111222,99999999'
Kerr-McGee,ioos:station:wmo:42373:1,2020-08-02T13:31:00Z,27.3539,-94.6254,79.0,12.6,129.9,-9999.0,'11111222,11111222,99999999'
Kerr-McGee,ioos:station:wmo:42373:1,2020-08-02T13:51:00Z,27.3539,-94.6254,79.0,16.5,119.4,-9999.0,'11111222,11111222,99999999'
Kerr-McGee,ioos:station:wmo:42373:1,2020-08-02T14:11:00Z,27.3539,-94.6254,79.0,22.5,109.2,-9999.0,'11111222,11111222,99999999'
Kerr-McGee,ioos:station:wmo:42373:1,2020-08-02T14:31:00Z,27.3539,-94.6254,79.0,11.9,112.7,-9999.0,'11111222,11111222,99999999'
Kerr-McGee,ioos:station:wmo:42373:1,2020-08-02T14:51:00Z,27.3539,-94.6254,79.0,12.3,114.9,-9999.0,'11111222,11111222,99999999'
Kerr-McGee,ioos:station:wmo:42373:1,2020-08-02T15:11:00Z,27.3539,-94.6254,79.0,16.0,109.0,-9999.0,'11111222,11111222,99999999'
Kerr-McGee,ioos:station:wmo:42373:1,2020-08-02T15:31:00Z,27.3539,-94.6254,79.0,17.4,102.6,-9999.0,'11111222,11111222,99999999'
Kerr-McGee,ioos:station:wmo:42373:1,2020-08-02T15:51:00Z,27.3539,-94.6254,79.0,22.2,100.1,-9999.0,'11111222,11111222,99999999'
Kerr-McGee,ioos:station:wmo:42373:1,2020-08-02T16:11:00Z,27.3539,-94.6254,79.0,22.1,102.0,-9999.0,'11111222,11111222,99999999'
Kerr-McGee,ioos:station:wmo:42373:1,2020-08-02T16:31:00Z,27.3539,-94.6254,79.0,24.1,102.7,-9999.0,'11111222,11111222,99999999'
Kerr-McGee,ioos:station:wmo:42373:1,2020-08-02T16:51:00Z,27.3539,-94.6254,79.0,21.1,107.9,-9999.0,'11111222,11111222,99999999'
Kerr-McGee,ioos:station:wmo:42373:1,2020-08-02T17:11:00Z,27.3539,-94.6254,79.0,23.5,112.3,-9999.0,'11111222,11111222,99999999'
Kerr-McGee,ioos:station:wmo:42373:1,2020-08-02T17:31:00Z,27.3539,-94.6254,79.0,23.8,107.1,-9999.0,'11111222,11111222,99999999'
Kerr-McGee,ioos:station:wmo:42373:1,2020-08-02T17:51:00Z,27.3539,-94.6254,79.0,26.7,105.4,-9999.0,'11111222,11111222,99999999'
Kerr-McGee,ioos:station:wmo:42373:1,2020-08-02T18:11:00Z,27.3539,-94.6254,79.0,20.3,106.9,-9999.0,'11111222,11111222,99999999'
Kerr-McGee,ioos:station:wmo:42373:1,2020-08-02T18:31:00Z,27.3539,-94.6254,79.0,22.3,113.8,-9999.0,'11111222,11111222,99999999'
Kerr-McGee,ioos:station:wmo:42373:1,2020-08-02T18:51:00Z,27.3539,-94.6254,79.0,24.2,114.7,-9999.0,'11111222,11111222,99999999'
Kerr-McGee,ioos:station:wmo:42373:1,2020-08-02T19:11:00Z,27.3539,-94.6254,79.0,24.3,112.8,-9999.0,'11111222,11111222,99999999'
Kerr-McGee,ioos:station:wmo:42373:1,2020-08-02T19:31:00Z,27.3539,-94.6254,79.0,19.1,120.5,-9999.0,'11111222,11111222,99999999'
Kerr-McGee,ioos:station:wmo:42373:1,2020-08-02T19:51:00Z,27.3539,-94.6254,79.0,23.3,116.5,-9999.0,'11111222,11111222,99999999'
Kerr-McGee,ioos:station:wmo:42373:1,2020-08-02T20:11:00Z,27.3539,-94.6254,79.0,21.9,120.4,-9999.0,'11111222,11111222,99999999'
Kerr-McGee,ioos:station:wmo:42373:1,2020-08-02T20:31:00Z,27.3539,-94.6254,79.0,25.2,118.7,-9999.0,'11111222,11111222,99999999'
Kerr-McGee,ioos:station:wmo:42373:1,2020-08-02T20:51:00Z,27.3539,-94.6254,79.0,27.3,120.1,-9999.0,'11111222,11111222,99999999'
Kerr-McGee,ioos:station:wmo:42373:1,2020-08-02T21:11:00Z,27.3539,-94.6254,79.0,23.7,123.8,-9999.0,'11111222,11111222,99999999'
Kerr-McGee,ioos:station:wmo:42373:1,2020-08-02T21:31:00Z,27.3539,-94.6254,79.0,19.4,120.0,-9999.0,'11111222,11111222,99999999'
Kerr-McGee,ioos:station:wmo:42373:1,2020-08-02T21:51:00Z,27.3539,-94.6254,79.0,19.3,125.5,-9999.0,'11111222,11111222,99999999'
Kerr-McGee,ioos:station:wmo:42373:1,2020-08-02T22:11:00Z,27.3539,-94.6254,79.0,16.9,142.0,-9999.0,'11111222,11111222,99999999'
Kerr-McGee,ioos:station:wmo:42373:1,2020-08-02T22:31:00Z,27.3539,-94.6254,79.0,20.1,130.6,-9999.0,'11111222,11111222,99999999'
Kerr-McGee,ioos:station:wmo:42373:1,2020-08-02T22:51:00Z,27.3539,-94.6254,79.0,22.1,129.3,-9999.0,'11111222,11111222,99999999'
Kerr-McGee,ioos:station:wmo:42373:1,2020-08-02T23:11:00Z,27.3539,-94.6254,79.0,20.1,127.7,-9999.0,'11111222,11111222,99999999'
Kerr-McGee,ioos:station:wmo:42373:1,2020-08-02T23:31:00Z,27.3539,-94.6254,79.0,23.5,117.7,-9999.0,'11111222,11111222,99999999'
Kerr-McGee,ioos:station:wmo:42373:1,2020-08-02T23:51:00Z,27.3539,-94.6254,79.0,26.6,123.0,-9999.0,'11111222,11111222,99999999'
Kerr-McGee,ioos:station:wmo:42373:1,2020-08-03T00:11:00Z,27.3539,-94.6254,79.0,23.0,126.2,-9999.0,'11111222,11111222,99999999'
Kerr-McGee,ioos:station:wmo:42373:1,2020-08-03T00:31:00Z,27.3539,-94.6254,79.0,23.4,123.5,-9999.0,'11111222,11111222,99999999'
Kerr-McGee,ioos:station:wmo:42373:1,2020-08-03T00:51:00Z,27.3539,-94.6254,79.0,21.4,123.5,-9999.0,'11111222,11111222,99999999'
Kerr-McGee,ioos:station:wmo:42373:1,2020-08-03T01:11:00Z,27.3539,-94.6254,79.0,23.1,122.5,-9999.0,'11111222,11111222,99999999'
Kerr-McGee,ioos:station:wmo:42373:1,2020-08-03T01:31:00Z,27.3539,-94.6254,79.0,25.1,118.5,-9999.0,'11111222,11111222,99999999'
Kerr-McGee,ioos:station:wmo:42373:1,2020-08-03T01:51:00Z,27.3539,-94.6254,79.0,25.2,113.9,-9999.0,'11111222,11111222,99999999'
Kerr-McGee,ioos:station:wmo:42373:1,2020-08-03T02:11:00Z,27.3539,-94.6254,79.0,25.2,116.9,-9999.0,'11111222,11111222,99999999'
Kerr-McGee,ioos:station:wmo:42373:1,2020-08-03T02:31:00Z,27.3539,-94.6254,79.0,23.0,123.1,-9999.0,'11111222,11111222,99999999'
Kerr-McGee,ioos:station:wmo:42373:1,2020-08-03T02:51:00Z,27.3539,-94.6254,79.0,21.2,119.1,-9999.0,'11111222,11111222,99999999'
Kerr-McGee,ioos:station:wmo:42373:1,2020-08-03T03:11:00Z,27.3539,-94.6254,79.0,20.4,120.0,-9999.0,'11111222,11111222,99999999'
Kerr-McGee,ioos:station:wmo:42373:1,2020-08-03T03:31:00Z,27.3539,-94.6254,79.0,22.8,113.8,-9999.0,'11111222,11111222,99999999'
Kerr-McGee,ioos:station:wmo:42373:1,2020-08-03T03:51:00Z,27.3539,-94.6254,79.0,21.4,110.6,-9999.0,'11111222,11111222,99999999'
Kerr-McGee,ioos:station:wmo:42373:1,2020-08-03T04:11:00Z,27.3539,-94.6254,79.0,23.0,105.7,-9999.0,'11111222,11111222,99999999'
Kerr-McGee,ioos:station:wmo:42373:1,2020-08-03T04:31:00Z,27.3539,-94.6254,79.0,23.4,106.4,-9999.0,'11111222,11111222,99999999'
Kerr-McGee,ioos:station:wmo:42373:1,2020-08-03T04:51:00Z,27.3539,-94.6254,79.0,22.9,111.3,-9999.0,'11111222,11111222,99999999'
Kerr-McGee,ioos:station:wmo:42373:1,2020-08-03T05:11:00Z,27.3539,-94.6254,79.0,24.4,109.9,-9999.0,'11111222,11111222,99999999'
Kerr-McGee,ioos:station:wmo:42373:1,2020-08-03T05:31:00Z,27.3539,-94.6254,79.0,24.7,108.7,-9999.0,'11111222,11111222,99999999'
Kerr-McGee,ioos:station:wmo:42373:1,2020-08-03T05:51:00Z,27.3539,-94.6254,79.0,27.5,108.6,-9999.0,'11111222,11111222,99999999'
Kerr-McGee,ioos:station:wmo:42373:1,2020-08-03T06:11:00Z,27.3539,-94.6254,79.0,28.7,113.2,-9999.0,'11111222,11111222,99999999'
Kerr-McGee,ioos:station:wmo:42373:1,2020-08-03T06:31:00Z,27.3539,-94.6254,79.0,32.4,111.0,-9999.0,'11111222,11111222,99999999'
Kerr-McGee,ioos:station:wmo:42373:1,2020-08-03T06:51:00Z,27.3539,-94.6254,79.0,31.4,113.3,-9999.0,'11111222,11111222,99999999'
Kerr-McGee,ioos:station:wmo:42373:1,2020-08-03T07:11:00Z,27.3539,-94.6254,79.0,31.8,115.5,-9999.0,'11111222,11111222,99999999'
Kerr-McGee,ioos:station:wmo:42373:1,2020-08-03T07:31:00Z,27.3539,-94.6254,79.0,30.9,117.0,-9999.0,'11111222,11111222,99999999'
Kerr-McGee,ioos:station:wmo:42373:1,2020-08-03T07:51:00Z,27.3539,-94.6254,79.0,29.7,120.1,-9999.0,'11111222,11111222,99999999'
Kerr-McGee,ioos:station:wmo:42373:1,2020-08-03T08:11:00Z,27.3539,-94.6254,79.0,29.3,119.5,-9999.0,'11111222,11111222,99999999'
Kerr-McGee,ioos:station:wmo:42373:1,2020-08-03T08:31:00Z,27.3539,-94.6254,79.0,27.7,118.2,-9999.0,'11111222,11111222,99999999'
Kerr-McGee,ioos:station:wmo:42373:1,2020-08-03T08:51:00Z,27.3539,-94.6254,79.0,29.3,115.7,-9999.0,'11111222,11111222,99999999'
Kerr-McGee,ioos:station:wmo:42373:1,2020-08-03T09:11:00Z,27.3539,-94.6254,79.0,29.7,113.6,-9999.0,'11111222,11111222,99999999'
Kerr-McGee,ioos:station:wmo:42373:1,2020-08-03T09:31:00Z,27.3539,-94.6254,79.0,28.3,113.3,-9999.0,'11111222,11111222,99999999'
Kerr-McGee,ioos:station:wmo:42373:1,2020-08-03T09:51:00Z,27.3539,-94.6254,79.0,28.8,117.5,-9999.0,'11111222,11111222,99999999'
Kerr-McGee,ioos:station:wmo:42373:1,2020-08-03T10:11:00Z,27.3539,-94.6254,79.0,28.3,113.9,-9999.0,'11111222,11111222,99999999'
Kerr-McGee,ioos:station:wmo:42373:1,2020-08-03T10:31:00Z,27.3539,-94.6254,79.0,24.7,114.2,-9999.0,'11111222,11111222,99999999'
Kerr-McGee,ioos:station:wmo:42373:1,2020-08-03T10:51:00Z,27.3539,-94.6254,79.0,22.7,121.0,-9999.0,'11111222,11111222,99999999'
Kerr-McGee,ioos:station:wmo:42373:1,2020-08-03T11:11:00Z,27.3539,-94.6254,79.0,19.7,124.3,-9999.0,'11111222,11111222,99999999'
Kerr-McGee,ioos:station:wmo:42373:1,2020-08-03T11:31:00Z,27.3539,-94.6254,79.0,29.9,115.1,-9999.0,'11111222,11111222,99999999'
Kerr-McGee,ioos:station:wmo:42373:1,2020-08-03T11:51:00Z,27.3539,-94.6254,79.0,22.4,128.1,-9999.0,'11111222,11111222,99999999'
Kerr-McGee,ioos:station:wmo:42373:1,2020-08-03T12:11:00Z,27.3539,-94.6254,79.0,27.7,125.5,-9999.0,'11111222,11111222,99999999'
Kerr-McGee,ioos:station:wmo:42373:1,2020-08-03T12:31:00Z,27.3539,-94.6254,79.0,26.0,126.4,-9999.0,'11111222,11111222,99999999'
Kerr-McGee,ioos:station:wmo:42373:1,2020-08-03T12:51:00Z,27.3539,-94.6254,79.0,22.9,132.0,-9999.0,'11111222,11111222,99999999'
Kerr-McGee,ioos:station:wmo:42373:1,2020-08-03T13:11:00Z,27.3539,-94.6254,79.0,26.0,128.5,-9999.0,'11111222,11111222,99999999'
Kerr-McGee,ioos:station:wmo:42373:1,2020-08-03T13:31:00Z,27.3539,-94.6254,79.0,22.2,131.9,-9999.0,'11111222,11111222,99999999'
Kerr-McGee,ioos:station:wmo:42373:1,2020-08-03T13:51:00Z,27.3539,-94.6254,79.0,19.7,134.6,-9999.0,'11111222,11111222,99999999'